This demonstration page uses our WeatherBlox Daily Observations layout. Learn more.

Left ArrowRight Arrow

39.12711, -84.51439

Hourly Observations for July 1, 2021

Temp ( °F °C ) Dew Point ( °F °C ) Humidity (%) Winds ( mph kmh ) Pressure ( in mb ) Visibility ( mi km ) Precip ( " mm )
12:07 am 00:07 Partly Cloudy 69 20.6 69 20.6 100 100 N N/A 30.03 1017 10 16 0.00 0.00
12:53 am 00:53 Clear 70 21.1 70 21.1 100 100 N N/A 29.99 1016 10 16 0.01 0.25
1:53 am 01:53 Clear 68 20 68 20 100 100 N N/A 29.99 1016 10 16 N/A
2:53 am 02:53 Partly Cloudy 68 20 67 19.4 96 96 SSW 3 6 29.97 1015 9 14 N/A
3:53 am 03:53 Cloudy 69 20.6 67 19.4 93 93 SW 3 6 29.97 1015 10 16 N/A
4:14 am 04:14 Cloudy with Light Rain 69 20.6 67 19.4 93 93 SW 3 6 29.98 1015 9 14 0.00 0.00
4:25 am 04:25 Cloudy with Light Rain 69 20.6 68 20 96 96 S 6 9 29.97 1015 3 4 0.04 1.02
4:33 am 04:33 Cloudy with Light Rain 69 20.6 69 20.6 100 100 N N/A 29.97 1015 10 16 0.04 1.02
4:53 am 04:53 Cloudy with Light Rain 69 20.6 69 20.6 100 100 SW 3 6 29.97 1015 6 10 0.06 1.52
5:53 am 05:53 Cloudy with Light Rain 70 21.1 70 21.1 100 100 N N/A 29.96 1015 10 16 0.01 0.25
6:23 am 06:23 Cloudy with Light Rain 70 21.1 70 21.1 100 100 S 3 6 29.96 1014 10 16 0.00 0.00
6:48 am 06:48 Cloudy with Light Rain 70 21 70 21 100 100 N N/A 29.96 1014 8 13 0.02 0.51
6:53 am 06:53 Cloudy with Light Rain 70 21.1 70 21.1 100 100 N N/A 29.96 1015 9 14 0.02 0.51
7:37 am 07:37 Cloudy with Rain 71 21.7 71 21.7 100 100 N N/A 29.97 1015 3 4 0.03 0.76
7:50 am 07:50 Cloudy with Light Rain 72 22 72 22 100 100 N N/A 29.96 1015 5 8 0.04 1.02
7:51 am 07:51 Cloudy with Light Rain 72 22 72 22 100 100 N N/A 29.96 1015 5 8 0.04 1.02
7:53 am 07:53 Cloudy with Light Rain 71 21.7 71 21.7 100 100 N N/A 29.96 1015 5 8 0.04 1.02
8:53 am 08:53 Cloudy with Light Rain 72 22.2 70 21.1 94 94 W 6 9 29.96 1015 9 14 0.01 0.25
9:53 am 09:53 Cloudy with Light Rain 71 21.7 70 21.1 96 96 SW 3 6 29.96 1015 7 11 0.04 1.02
10:53 am 10:53 Cloudy with Light Rain 72 22.2 72 22.2 100 100 S 6 9 29.96 1014 10 16 0.02 0.51
11:53 am 11:53 Cloudy with Light Rain 73 22.8 73 22.8 100 100 S 6 9 29.96 1014 10 16 0.01 0.25
12:39 pm 12:39 Cloudy with Light Rain 72 22.2 72 22.2 100 100 S 5 7 29.93 1014 6 10 0.01 0.25
12:53 pm 12:53 Cloudy with Light Rain 72 22.2 71 21.7 97 97 S 3 6 29.93 1014 4 6 0.03 0.76
1:53 pm 13:53 Cloudy with Light Rain 73 22.8 70 21.1 90 90 VRB 3 6 29.94 1014 3 4 0.03 0.76
2:00 pm 14:00 Cloudy with Light Rain 74 23.3 70 21.1 88 88 N 7 11 29.93 1014 4 6 0.00 0.00
2:22 pm 14:22 Cloudy with Light Rain 70 21.1 68 20 93 93 E 6 9 29.94 1014 4 6 0.00 0.00
2:29 pm 14:29 Cloudy with Light Rain 71 21.7 68 20 90 90 ENE 3 6 29.94 1014 4 6 0.00 0.00
2:53 pm 14:53 Cloudy 72 22.2 68 20 87 87 N N/A 29.93 1014 10 16 0.00 0.00
3:53 pm 15:53 Cloudy 75 23.9 69 20.6 82 82 VRB 3 6 29.91 1013 10 16 N/A
4:53 pm 16:53 Mostly Cloudy 76 24.4 69 20.6 79 79 N N/A 29.90 1012 10 16 N/A
5:53 pm 17:53 Mostly Cloudy 77 25 68 20 74 74 W 3 6 29.88 1012 10 16 N/A
6:53 pm 18:53 Partly Cloudy 78 25.6 68 20 71 71 S 3 6 29.88 1012 10 16 N/A
7:53 pm 19:53 Partly Cloudy 77 25 69 20.6 77 77 SSW 5 7 29.88 1012 10 16 N/A
8:53 pm 20:53 Mostly Cloudy with Light Rain 75 23.9 69 20.6 82 82 N 8 13 29.88 1012 10 16 0.00 0.00
9:53 pm 21:53 Clear 70 21.1 65 18.3 84 84 WNW 3 6 29.90 1012 10 16 0.00 0.00
10:53 pm 22:53 Mostly Clear 68 20 66 18.9 93 93 N N/A 29.90 1013 10 16 N/A
11:53 pm 23:53 Clear with Mist and Fog 66 18.9 65 18.3 96 96 N N/A 29.91 1013 3 4 N/A

Powered by AerisWeather